Flag for U.S.A. Weather past 2 weeks in St. Augustine, Florida, U.S.A.

Now
54 °F

Fog.


Feels Like: 54 °F
Forecast: 54 / 70 °F
Wind: No wind

Location: St. Augustine Airport

Current Time: Mar 2, 2015 at 8:05:18 AM

Latest Report: Mar 2, 2015 at 6:58 AM


Visibility: 0 mi

Pressure: 30.32 "Hg

Humidity: 100%

Dew point: 54 °F

Location of St. AugustineLocation

Historic Weather in St. Augustine — Graph

°F

St. Augustine temperature yesterday

Maximum temperature yesterday: 60 °F (at 12:58 PM)
Minimum temperature yesterday: 53 °F (at 4:58 PM)
Average temperature yesterday: 55 °F

Past Weeks' High & Low Weather Summary

 TemperatureHumidityPressure
High77 °F (Feb 22, 11:58 AM)100% (Feb 17, 3:02 PM)30.50 "Hg (Feb 17, 3:02 PM)
Low28 °F (Feb 20, 6:58 AM)22% (Feb 19, 2:58 PM)29.59 "Hg (Feb 26, 2:58 AM)
Average54 °F79%30.16 "Hg
* Reported Feb 15 6:58 AM — Mar 2 6:58 AM, St. Augustine, Weather by CustomWeather, © 2015

Note: Actual official high and low records may vary slightly from our data, if they occured in-between our weather recording intervals... More about our weather records

Advertising

St. Augustine weather history for previous 24 hours

 ConditionsComfort  
Time TempWeatherWind HumidityBarometerVisibility
6:58 AM
Mon, Mar 2
54 °FFog.No wind100%30.32 "Hg0 mi
5:58 AM54 °FFog.No wind100%30.32 "Hg1 mi
4:58 AM54 °FFog.5 mph100%30.32 "Hg1 mi
3:58 AM54 °FLight rain. Fog.6 mph97%30.32 "Hg1 mi
2:58 AM54 °FLight rain. Fog.7 mph97%30.32 "Hg1 mi
2:02 AM54 °FFog.5 mph100%30.34 "Hg1 mi
1:58 AM54 °FFog.3 mph97%30.34 "Hg1 mi
12:58 AM53 °FLight rain. Fog.6 mph100%30.35 "Hg1 mi
11:58 PM
Sun, Mar 1
53 °FLight rain. Fog.8 mph100%30.37 "Hg1 mi
10:58 PM53 °FLight rain. Fog.6 mph96%30.37 "Hg1 mi
9:58 PM53 °FFog.8 mph96%30.38 "Hg1 mi
8:58 PM53 °FFog.6 mph96%30.37 "Hg2 mi
8:03 PM54 °FFog.7 mph94%30.37 "Hg1 mi
7:58 PM53 °FFog.7 mph96%30.37 "Hg2 mi
6:58 PM53 °FFog.8 mph96%30.36 "Hg2 mi
6:02 PM54 °FFog.7 mph94%30.35 "Hg4 mi
5:02 PM54 °FFog.9 mph94%30.34 "Hg5 mi
4:58 PM53 °FFog.8 mph93%30.34 "Hg2 mi
3:58 PM55 °FFog.9 mph90%30.36 "Hg6 mi
2:58 PM56 °FFog.12 mph90%30.35 "Hg4 mi
1:58 PM59 °FLow clouds.10 mph84%30.37 "Hg2 mi
12:58 PM60 °FFog.10 mph86%30.40 "Hg2 mi
11:58 AM59 °FFog.7 mph90%30.42 "Hg2 mi
10:58 AM57 °FFog.9 mph96%30.43 "Hg2 mi
9:58 AM55 °FFog.8 mph96%30.43 "Hg2 mi
9:02 AM54 °FLight rain. Low clouds.10 mph100%30.44 "Hg10 mi
8:02 AM54 °FLight rain. Fog.8 mph100%30.43 "Hg6 mi
Weather by CustomWeather, © 2015

See weather overviewHow to use our weather pages